Tracking 19562 objects as of 25-Mar-2019
HD Live streaming from Space Station
objects crossing your sky now

COSMOS 1574

Track COSMOS 1574 now!
10-day predictions
COSMOS 1574 is classified as:


NORAD ID: 15055
Int'l Code: 1984-062A
Perigee: 971.5 km
Apogee: 1,011.0 km
Inclination: 83.0 °
Period: 104.8 minutes
Semi major axis: 7362 km
RCS: 2.6972 m2 (large)
Launch date: June 21, 1984
Source: Commonwealth of Independent States (former USSR) (CIS)
Launch site: PLESETSK MISSILE AND SPACE COMPLEX (PKMTR)
aabbcc
Your satellite tracking list
Your tracking list is empty




NASA's NSSDC Master Catalog

Two Line Element Set (TLE):
1 15055U 84062A   19083.89950030  .00000028  00000-0  13144-4 0  9998
2 15055  82.9572 228.7751 0026818 211.8549 258.7313 13.74308675742947
Source of the keplerian elements: AFSPC